SL-16 R/B (22803 NORAD) Tracking and Keplerian Element Data

This shows tracking and keplerian element data for the satellite.

Feedback or suggestion? Click here.




ElementValue
Catalog22803
NameSL-16 R/B
Epoch Orbit30194
Epoch Day323.21861141
Epoch Year2018
RAAN233.5923
Inclination70.991
Eccentricity0.0019014
Argument of Perigee308.8851
Mean Anonmoly51.0575
Mean Motion14.16803662
Decay Rate1.99E-06
L11 22803U 93059B 18323.21861141 .00000199 00000-0 12290-3 0 9998
L22 22803 70.9910 233.5923 0019014 308.8851 51.0575 14.16803662301945

Live tracking and technical data element details for SL-16 R/B (NORAD 22803). SL-16 R/B can be tracked NOW for your location showing map with azimuth and elevation plus other details from your city location.

Track the satellite on the map from your city or location and see movement details for azimuth, elevation, latitude, longitude, range, height, and movement on the map or in text.







IsCatalogInMostPopularTable: catalog: 22803, numindb: 37
Update: records affected: 1



GetName: 22803 SL-16 R/B

Hit Count: updated at: Wed, 21 Nov 2018 06:19:27 GMT